Change the Weather History Date:

Sunday, April 20, 2014

  Actual Average Record
Temperature  
Mean Temperature 66 °F -  
Max Temperature 78 °F 65 °F 80 °F (2001)
Min Temperature 54 °F 46 °F 30 °F (2013)
Cooling Degree Days 1    
Growing Degree Days 16 (Base 50)    
Moisture  
Dew Point 47 °F    
Average Humidity 50    
Maximum Humidity 64    
Minimum Humidity 37    
Precipitation  
Precipitation 0.00 in - - ()
Sea Level Pressure  
Sea Level Pressure 30.08 in    
Wind  
Wind Speed 9 mph (SSW)    
Max Wind Speed 20 mph    
Max Gust Speed 29 mph    
Visibility 10 miles    
Events      
Averages and records for this station are not official NWS values.
T = Trace of Precipitation, MM = Missing Value Source: NWS Daily Summary

Daily Weather History Graph

Daily Weather History Graph

Search for Another Location

Airport or City:

Trip Planner

Search our weather history database for the weather conditions in past years. The results will help you decide how hot, cold, wet, or windy it might be!

Date:

Astronomy

Apr. 20, 2014 Rise Set
Actual Time 6:30 AM CDT 7:55 PM CDT
Civil Twilight 6:03 AM CDT 8:23 PM CDT
Nautical Twilight 5:29 AM CDT 8:57 PM CDT
Astronomical Twilight 4:54 AM CDT 9:32 PM CDT
Moon 12:34 AM CDT (4/20) 10:53 AM CDT (4/20)
Length of Visible Light 14h 20m
Length of Day
13h 25m
Waning Gibbous, 68% of the Moon is Illuminated
Apr 20
Waning Gibbous
Apr 22
Last Quarter
Apr 29
New
May 6
First Quarter
May 14
Full

Hourly Weather History & Observations

Time (CDT) Temp. Dew Point Humidity Pressure Visibility Wind Dir Wind Speed Gust Speed Precip Events Conditions
12:58 AM 59.9 °F 37.8 °F 44% 30.11 in 10.0 mi SSE 4.6 mph - N/A   Clear
1:58 AM 59.2 °F 38.1 °F 46% 30.12 in 10.0 mi South 5.8 mph - N/A   Partly Cloudy
2:58 AM 56.5 °F 39.2 °F 52% 30.12 in 10.0 mi South 6.9 mph - N/A   Clear
3:58 AM 55.9 °F 38.8 °F 53% 30.12 in 10.0 mi South 5.8 mph - N/A   Partly Cloudy
4:58 AM 56.5 °F 39.9 °F 54% 30.12 in 10.0 mi South 6.9 mph - N/A   Clear
5:58 AM 55.9 °F 41.4 °F 58% 30.12 in 10.0 mi South 8.1 mph - N/A   Clear
6:58 AM 54.0 °F 41.0 °F 62% 30.12 in 10.0 mi South 6.9 mph - N/A   Clear
7:58 AM 58.6 °F 43.3 °F 57% 30.14 in 10.0 mi South 9.2 mph - N/A   Clear
8:58 AM 62.2 °F 45.1 °F 54% 30.13 in 10.0 mi SSW 10.4 mph - N/A   Clear
9:58 AM 68.0 °F 46.4 °F 46% 30.13 in 10.0 mi SW 13.8 mph - N/A   Partly Cloudy
10:58 AM 72.3 °F 46.2 °F 39% 30.13 in 10.0 mi SSW 15.0 mph - N/A   Clear
11:58 AM 75.4 °F 49.6 °F 40% 30.11 in 10.0 mi SW 18.4 mph 24.2 mph N/A   Clear
12:20 PM 75.2 °F 50.0 °F 41% 30.10 in 10.0 mi South 18.4 mph - N/A   Clear
12:58 PM 77.0 °F 49.5 °F 38% 30.09 in 10.0 mi SW 19.6 mph 26.5 mph N/A   Clear
1:58 PM 78.1 °F 49.6 °F 37% 30.08 in 10.0 mi SSW 16.1 mph 25.3 mph N/A   Clear
2:58 PM 77.2 °F 50.9 °F 40% 30.07 in 10.0 mi SSW 16.1 mph 28.8 mph N/A   Partly Cloudy
3:58 PM 77.4 °F 52.0 °F 41% 30.06 in 10.0 mi SW 18.4 mph 23.0 mph N/A   Clear
4:58 PM 74.5 °F 50.5 °F 43% 30.04 in 10.0 mi SSW 13.8 mph - N/A   Partly Cloudy
5:58 PM 73.6 °F 52.3 °F 47% 30.03 in 10.0 mi SSW 9.2 mph - N/A   Clear
6:58 PM 70.0 °F 54.9 °F 59% 30.02 in 10.0 mi SSW 8.1 mph - N/A   Clear
7:58 PM 71.2 °F 51.1 °F 49% 30.03 in 10.0 mi SW 11.5 mph - N/A   Scattered Clouds
8:58 PM 66.9 °F 52.0 °F 59% 30.02 in 10.0 mi South 4.6 mph - N/A   Scattered Clouds
9:58 PM 66.2 °F 51.6 °F 59% 30.04 in 10.0 mi SSW 4.6 mph - N/A   Partly Cloudy
10:58 PM 64.8 °F 51.4 °F 62% 30.03 in 10.0 mi SSW 4.6 mph - N/A   Scattered Clouds
11:58 PM 63.9 °F 51.3 °F 64% 30.01 in 10.0 mi South 4.6 mph - N/A   Clear